Temp
74 73 71 71 72 71 71 72 73 72 74 74 76 75 69 67 66 65 62 64 62 57 64 70 72 73 71 72 71 69 64 60 56 59 63 63 64 70 71 71 71 70 71
73 72 72 72 70 69 68 69 72 72 74 74 74 74 71 69 65 67 62 59 60 57 63 71 71 75 70 70 69 68 63 60 59 57 60 62 64 70 70 69 70 72 71
73 72 70 69 69 67 67 68 68 69 68 71 73 72 71 67 65 65 65 63 64 65 71 71 71 71 70 69 68 68 67 61 60 63 63 70 69 69 69 69 69 68 71
72 71 68 66 67 67 67 67 68 68 67 66 63 61 71 73 72 69 69 71 71 71 71 72 73 72 71 69 69 68 69 67 65 64 64 65 67 68 67 65 64 66 66
69 68 66 67 67 67 67 67 67 66 65 67 65 60 58 71 78 73 73 71 70 70 71 73 72 68 63 65 69 65 65 65 65 63 62 62 63 63 62 64 63 63 65
67 67 68 68 67 65 65 65 65 66 65 63 65 61 56 58 63 62 69 70 71 70 69 70 72 65 64 61 60 59 62 62 61 60 59 58 59 60 62 63 62 61 60
65 65 66 65 64 64 66 66 64 64 63 61 59 60 58 57 54 58 57 70 69 69 69 69 71 75 68 69 60 59 58 56 57 61 59 59 59 61 61 61 62 62 62
60 61 62 63 62 62 61 62 62 63 62 61 60 59 57 61 55 53 56 67 67 70 69 69 67 68 67 68 66 65 64 64 60 62 60 61 62 63 62 62 61 62 64
58 59 60 59 58 58 58 59 60 62 63 60 61 60 60 62 55 51 53 62 60 63 70 70 69 69 59 55 68 65 64 65 60 56 56 54 52 49 48 58 58 60 59
55 56 58 57 57 56 56 57 58 59 63 65 64 62 61 63 56 51 51 68 63 67 67 65 56 67 53 52 65 65 64 64 66 66 61 58 51 56 47 58 61 60 60
55 56 55 55 55 55 55 57 57 56 58 60 62 63 64 63 63 49 48 67 68 66 67 68 70 52 51 49 54 65 64 65 64 65 64 63 63 64 62 61 63 62 59
52 52 51 52 54 55 54 55 55 56 55 55 58 60 64 65 55 49 46 51 59 67 68 69 69 50 50 47 50 55 49 56 64 62 61 60 61 62 64 64 64 63 63
48 48 49 50 52 53 53 52 53 53 54 54 56 59 60 64 66 51 46 46 48 63 69 65 56 51 48 49 49 51 47 60 62 60 60 60 62 63 65 63 63 63 62
45 45 47 47 49 51 52 52 52 52 52 54 54 56 59 62 64 66 61 55 49 53 58 64 60 54 52 56 53 52 59 63 62 61 61 62 63 63 61 62 60 59 58
42 44 44 45 46 48 49 49 49 52 52 53 54 56 57 58 64 60 61 66 64 60 61 64 64 64 63 63 62 60 60 63 62 62 62 62 62 62 60 61 59 58 57
39 40 41 42 43 44 44 45 44 44 44 44 44 49 58 52 45 44 46 47 45 47 60 62 62 63 65 65 65 65 64 61 64 64 63 64 62 60 59 59 58 58 56
37 38 38 39 39 39 40 41 41 44 42 42 41 41 42 45 42 43 43 42 44 44 62 62 63 63 65 67 67 68 67 67 67 67 67 62 61 60 56 58 58 58 58
38 39 38 38 39 39 40 40 41 40 40 42 42 42 42 41 41 40 43 45 52 51 59 63 63 64 66 68 69 68 68 68 68 66 63 62 61 59 59 59 57 56 57
35 36 37 38 38 39 39 40 41 40 40 40 43 42 41 40 40 38 41 49 51 54 58 61 64 65 66 68 68 69 69 69 67 63 62 61 60 59 58 58 57 45 49
35 35 35 36 36 37 37 37 38 40 40 41 41 43 46 41 43 45 47 50 51 52 55 61 64 65 66 67 68 69 70 66 63 62 61 60 60 60 59 59 58 58 59
36 36 36 37 37 37 37 37 38 38 39 40 42 43 41 45 45 47 49 51 52 54 56 60 65 66 66 67 66 67 67 65 63 62 61 60 60 59 60 58 59 60 60
38 39 41 41 42 41 40 40 40 40 40 40 41 43 36 46 46 47 49 52 54 55 58 60 64 64 67 68 67 67 68 63 62 62 60 60 60 60 59 58 58 58 59
43 43 44 46 49 45 47 46 44 42 42 42 43 44 42 45 47 48 49 53 55 57 59 62 63 65 65 66 68 69 69 63 63 62 61 60 60 59 58 57 59 60 60
53 53 52 53 51 50 49 47 45 41 45 45 45 45 45 47 48 50 53 55 56 58 60 62 62 61 63 62 64 66 65 65 64 63 62 61 60 55 58 59 61 62 58
49 49 52 51 51 51 50 48 48 48 48 48 48 48 48 50 51 53 56 57 58 59 58 59 59 63 62 62 65 66 48 42 61 53 63 62 59 59 61 60 58 57 56
45 46 47 48 49 49 50 50 49 48 47 48 48 48 50 52 54 56 57 57 57 60 60 60 61 62 63 62 62 44 39 39 50 44 62 61 60 61 60 58 57 55 54
MSLP
1003.92 1003.91 1003.93 1003.87 1003.49 1003.16 1002.70 1002.11 1001.76 1001.53 1001.22 1000.62 999.84 1000.01 1000.22 1001.22 1001.89 1002.87 1004.29 1004.82 1005.57 1006.07 1004.55 1005.13 1004.39 1004.39 1004.35 1004.23 1004.42 1005.06 1006.41 1007.20 1008.65 1008.60 1007.96 1007.09 1007.74 1007.00 1006.59 1007.16 1007.10 1007.26 1007.25
1003.52 1003.63 1003.44 1003.46 1003.46 1003.24 1002.94 1002.47 1001.61 1001.04 1000.60 1000.14 999.65 999.44 999.67 1000.02 1000.94 1001.36 1002.35 1003.61 1005.19 1004.76 1006.68 1005.24 1003.80 1003.50 1003.46 1003.38 1004.12 1005.16 1006.28 1006.85 1007.28 1007.85 1007.35 1008.21 1008.48 1006.72 1006.70 1006.77 1006.79 1007.01 1006.84
1003.36 1003.49 1003.37 1003.18 1003.10 1003.01 1002.72 1002.38 1001.98 1001.36 1000.83 1000.26 999.62 999.55 999.36 999.86 1000.23 1001.15 1001.36 1001.64 1002.78 1004.10 1003.16 1002.92 1002.41 1002.09 1002.29 1002.89 1003.95 1004.64 1005.41 1006.76 1006.37 1007.10 1007.27 1007.03 1006.67 1006.32 1006.38 1006.02 1006.24 1006.47 1005.95
1003.17 1003.22 1003.16 1003.12 1002.94 1002.69 1002.36 1002.17 1001.62 1001.24 1000.74 1000.41 1000.74 1000.71 999.75 998.86 999.00 999.72 1000.28 1000.54 1000.66 1000.98 1000.92 1001.17 1001.25 1001.64 1002.02 1002.48 1003.53 1004.23 1004.92 1005.35 1005.20 1005.96 1006.48 1006.56 1006.21 1005.96 1005.77 1005.98 1005.92 1005.86 1005.68
1002.96 1002.99 1002.92 1002.87 1002.66 1002.36 1002.02 1001.63 1001.19 1000.84 1000.40 1000.19 1000.19 1000.28 1001.02 1000.03 997.79 998.38 998.78 999.31 999.88 1000.07 1000.31 1000.52 1000.96 1001.51 1002.06 1002.44 1003.27 1004.29 1004.45 1004.66 1004.91 1005.64 1006.14 1006.30 1006.25 1006.22 1006.53 1006.46 1006.37 1006.02 1005.35
1002.48 1002.40 1002.39 1002.25 1002.09 1001.89 1001.70 1001.21 1000.83 1000.40 1000.06 999.78 999.72 1000.30 1001.17 1001.17 998.42 997.87 998.35 999.09 999.74 1000.06 1000.14 1000.50 1000.67 1001.32 1001.98 1002.66 1003.33 1003.87 1004.05 1004.30 1005.23 1006.07 1006.25 1006.28 1006.31 1006.43 1006.55 1006.50 1006.33 1005.82 1005.42
1002.46 1002.25 1002.10 1002.10 1001.97 1001.85 1001.10 1000.66 1000.23 999.99 999.85 999.65 999.42 999.89 1000.70 1001.25 1000.45 998.22 998.14 998.35 998.64 999.06 999.54 999.62 1000.26 1000.70 1001.66 1002.24 1002.73 1002.78 1003.45 1004.25 1005.09 1005.78 1006.30 1006.55 1006.75 1006.60 1006.49 1006.14 1006.07 1005.84 1005.53
1002.46 1002.27 1002.16 1001.98 1001.79 1001.54 1001.12 1000.57 999.88 999.47 999.24 999.19 998.90 998.75 999.03 1000.32 1000.00 998.88 998.31 998.50 998.79 999.04 999.51 999.86 1000.09 1000.46 1000.71 1001.09 1002.00 1002.95 1003.74 1004.33 1004.86 1005.25 1005.51 1005.60 1005.76 1005.72 1006.06 1006.18 1005.87 1005.47 1005.05
1001.95 1001.67 1001.76 1001.81 1001.62 1001.28 1000.88 1000.16 999.62 999.17 998.67 998.65 998.72 998.51 998.42 998.31 998.71 998.52 999.45 998.71 998.69 999.47 999.08 999.20 999.33 999.51 1000.47 1001.08 1002.01 1003.03 1003.82 1004.31 1004.19 1004.29 1004.49 1004.90 1005.13 1005.16 1005.23 1005.71 1005.68 1005.62 1004.92
1001.28 1001.02 1001.06 1001.04 1000.80 1000.48 1000.23 999.82 999.58 999.09 997.81 997.74 997.86 997.97 997.61 997.30 997.50 997.77 999.20 998.63 999.16 999.35 998.35 999.76 1000.26 999.93 1000.10 1001.21 1001.99 1002.53 1003.27 1003.38 1003.56 1003.88 1004.47 1004.58 1004.64 1004.63 1004.84 1005.43 1005.51 1005.36 1004.84
1000.51 1000.34 1000.17 1000.14 1000.00 999.76 999.32 999.04 998.83 998.69 998.33 997.44 997.06 997.26 997.25 997.06 997.12 997.74 997.61 998.20 998.48 998.91 998.24 998.73 999.20 999.18 999.67 1001.01 1001.40 1002.02 1002.29 1002.59 1003.10 1003.60 1003.90 1004.09 1004.18 1004.18 1004.37 1004.53 1004.53 1004.70 1004.72
999.97 999.65 999.37 999.26 999.00 998.59 998.33 998.21 998.14 997.93 997.70 997.62 996.91 996.53 996.33 996.15 996.26 996.81 997.21 997.55 997.56 998.02 997.98 997.70 997.69 998.62 999.76 1000.46 1001.29 1001.23 1001.84 1002.15 1002.75 1003.20 1003.46 1003.62 1003.72 1003.56 1003.29 1003.25 1003.56 1003.81 1003.98
999.18 998.77 998.47 998.18 997.79 997.55 997.34 997.28 997.29 997.27 996.99 996.80 996.62 996.14 995.87 995.96 995.89 996.14 997.20 997.38 997.46 997.85 997.28 997.12 997.71 998.51 999.33 1000.05 1000.38 1000.67 1001.69 1002.09 1002.40 1002.74 1003.00 1003.05 1003.03 1002.77 1002.60 1002.86 1003.16 1003.39 1003.58
998.47 997.93 997.60 997.14 996.78 996.48 996.38 996.32 996.32 996.30 996.28 996.26 996.13 995.84 995.55 995.52 995.75 995.84 996.13 996.61 997.08 997.22 997.08 997.12 997.54 998.90 999.27 999.74 1000.61 1001.40 1001.37 1001.51 1001.86 1002.06 1002.24 1002.28 1002.18 1002.17 1002.32 1002.37 1002.82 1003.22 1003.33
997.62 997.04 996.66 996.47 996.10 995.59 995.40 995.49 995.59 995.45 995.41 995.44 995.37 995.38 995.33 995.27 994.85 995.18 995.57 995.66 995.91 996.16 996.76 997.24 997.68 998.18 998.66 999.17 999.68 1000.17 1000.66 1000.98 1001.31 1001.44 1001.57 1001.67 1001.78 1001.88 1002.08 1002.24 1002.55 1002.92 1003.04
996.66 996.17 995.78 995.49 995.20 994.90 994.64 994.49 994.61 994.71 994.79 994.70 994.87 995.01 994.93 995.05 995.11 995.29 995.41 995.37 995.42 995.32 996.03 996.39 996.89 997.43 997.71 998.08 998.50 999.04 999.46 999.95 1000.38 1000.55 1000.74 1000.94 1001.13 1001.49 1001.82 1002.02 1002.36 1002.71 1002.55
995.74 995.25 994.93 994.66 994.31 994.28 994.26 993.86 993.59 993.58 993.68 994.02 994.28 994.46 994.69 994.78 994.91 995.44 995.82 995.98 995.63 995.29 995.34 995.69 996.06 996.62 996.82 996.97 997.40 997.77 998.23 998.77 999.14 999.31 999.54 999.98 1000.59 1001.06 1001.50 1001.75 1002.07 1002.13 1001.65
994.80 994.16 993.66 993.38 993.07 992.77 992.61 992.69 992.81 992.90 993.03 993.15 993.41 993.73 994.01 994.39 994.44 995.03 995.65 996.20 996.29 995.48 995.03 994.93 995.42 995.69 995.99 996.03 996.40 996.87 997.35 997.67 998.01 998.23 998.79 999.57 1000.29 1000.85 1001.19 1001.47 1001.76 1001.71 1001.33
993.69 993.16 992.85 992.22 991.95 991.83 991.69 991.62 991.60 991.72 991.88 992.14 992.52 992.80 993.20 993.62 994.17 994.65 995.35 995.93 996.11 995.50 994.88 994.63 994.62 994.99 995.31 995.55 995.72 996.07 996.64 996.95 997.31 997.89 998.61 999.30 999.90 1000.14 1000.51 1000.97 1000.98 1001.14 1001.21
992.39 991.62 991.46 991.09 990.78 990.55 990.37 990.36 990.36 990.25 990.49 990.83 991.19 991.48 991.99 992.83 993.16 993.79 994.60 995.09 995.29 995.27 994.91 994.31 994.24 994.50 994.71 995.21 995.32 995.53 995.93 996.37 996.88 997.64 998.29 998.85 999.29 999.64 1000.04 1000.48 1000.91 1001.08 1000.81
990.99 990.38 989.93 989.70 989.31 989.03 988.92 988.80 988.76 989.04 989.34 989.64 990.02 990.48 990.78 991.31 991.87 992.42 993.13 993.75 994.05 994.39 994.47 994.31 994.09 994.34 994.45 994.77 995.01 995.18 995.50 995.80 996.39 997.21 997.90 998.36 998.74 999.27 999.68 999.95 1000.21 1000.19 999.73
989.80 989.03 988.64 988.18 987.73 987.47 987.18 987.03 987.28 987.84 988.33 988.82 989.31 989.89 990.48 990.69 991.19 991.71 992.32 992.85 993.39 993.96 994.30 994.24 993.88 993.97 994.20 994.52 994.67 994.88 995.21 995.51 996.21 996.69 997.44 997.97 998.30 998.90 999.27 999.60 999.62 999.70 999.41
988.42 987.99 987.73 987.12 986.65 986.30 986.08 986.14 985.97 987.07 987.69 988.24 988.74 989.31 990.13 990.38 990.63 991.08 991.60 992.28 992.81 993.36 993.95 993.90 993.81 993.88 994.35 994.33 994.25 994.29 994.28 995.01 995.62 996.19 996.89 997.48 998.03 998.43 999.10 999.22 998.96 998.56 999.34
988.04 987.45 987.33 986.91 986.75 986.47 986.25 986.37 986.77 987.09 987.41 987.90 988.37 988.91 989.47 989.66 990.06 990.46 990.89 991.40 992.17 992.68 993.13 993.17 993.55 993.95 994.40 994.07 994.08 993.41 993.67 994.49 995.24 995.89 996.34 996.96 997.80 998.32 998.53 998.83 998.45 999.11 1000.21
989.33 988.57 988.02 987.59 987.16 986.89 986.78 986.82 987.00 987.20 987.41 987.68 988.19 988.73 989.14 989.24 989.64 989.93 990.32 990.83 991.43 991.97 992.57 992.86 993.24 993.56 993.64 993.66 993.54 993.10 993.67 994.37 994.99 995.66 996.25 996.90 997.78 998.19 998.43 998.64 999.32 1000.17 1000.93
990.62 989.96 989.38 988.81 988.40 988.00 987.69 987.56 987.63 987.79 987.92 988.15 988.51 988.79 988.91 988.97 989.38 989.64 990.00 990.52 991.18 991.75 992.13 992.39 992.64 992.83 993.19 993.49 993.55 993.71 994.07 994.49 994.97 995.35 996.19 996.90 997.41 997.92 998.42 999.18 999.89 1000.78 1001.68
Wind_Speed
6 5 6 8 11 13 10 8 10 11 12 14 15 11 10 13 11 9 10 9 8 2 24 8 9 8 4 2 2 2 5 5 4 3 2 7 14 5 3 6 6 6 7
6 7 6 5 8 10 11 13 10 11 11 12 13 8 11 8 8 11 11 9 7 10 31 23 10 7 7 6 3 2 7 4 4 6 5 7 21 8 7 7 5 5 6
9 11 11 6 7 9 10 10 11 11 10 11 10 10 11 11 9 11 12 13 17 27 16 11 9 8 6 5 4 4 3 4 5 5 6 7 5 4 6 6 6 6 5
11 11 10 10 9 9 10 13 10 10 10 6 7 12 16 13 15 15 16 17 14 10 8 7 6 5 5 6 5 5 3 3 4 3 3 4 5 7 4 2 3 3 4
12 13 12 11 11 11 11 13 12 9 12 12 5 11 15 20 10 13 11 9 7 7 7 7 6 8 12 9 4 5 5 2 3 3 3 3 3 4 4 3 4 4 4
13 14 13 13 13 12 14 13 14 11 11 11 11 4 7 15 21 13 8 8 9 8 6 7 5 10 10 11 11 10 7 3 1 1 2 3 5 4 4 3 3 4 4
14 14 14 14 15 16 14 14 14 13 10 9 7 7 5 14 25 3 1 2 6 6 5 6 6 6 8 7 8 6 6 5 7 3 3 3 4 3 4 6 4 5 7
14 14 14 15 16 18 19 18 15 11 10 9 10 8 7 15 26 9 11 2 5 4 6 6 7 6 7 7 7 6 5 6 7 6 6 6 6 4 1 3 6 8 7
17 15 15 16 18 16 19 19 17 16 12 9 10 11 15 16 17 10 5 4 3 14 7 9 9 7 11 11 7 9 8 9 11 15 14 11 7 9 5 2 6 7 5
16 16 15 15 16 17 18 17 13 14 14 11 10 13 17 16 14 14 11 7 12 13 11 4 13 10 12 13 9 7 6 6 5 4 4 4 8 8 8 6 5 6 4
14 15 15 15 16 18 16 13 13 12 14 12 12 12 13 14 14 16 15 9 8 8 8 7 8 14 13 15 14 7 9 6 6 4 3 4 5 6 6 7 7 4 4
17 17 15 16 15 14 15 14 15 14 13 11 13 12 11 12 13 12 15 16 13 9 11 8 7 12 16 15 12 13 11 8 4 2 3 4 5 4 5 5 6 5 4
18 17 16 16 15 15 15 14 12 13 11 11 10 12 12 11 10 13 19 20 15 9 7 10 10 11 16 19 17 18 11 4 4 4 5 4 5 5 2 3 1 3 6
18 17 15 15 15 14 11 11 11 11 11 11 12 12 10 12 12 9 9 8 12 10 8 7 6 5 8 10 5 3 6 7 7 6 6 5 4 1 1 2 3 2 5
16 15 14 13 14 14 13 11 11 12 12 12 12 11 12 11 10 12 12 10 10 11 10 9 8 8 5 7 8 8 9 7 6 6 6 6 4 1 2 2 2 3 5
15 13 12 11 11 11 11 11 16 20 18 16 15 11 11 14 9 11 9 8 10 11 11 11 10 10 9 8 9 10 8 9 8 8 8 8 4 3 3 3 3 5 5
15 13 10 13 10 10 11 11 12 11 16 18 15 13 13 16 11 8 11 13 8 5 11 11 10 10 10 9 10 10 8 8 10 9 9 5 4 3 4 5 4 4 6
15 21 13 11 11 11 11 12 11 11 10 10 16 17 16 17 16 4 5 3 8 1 6 11 10 9 10 9 9 8 7 7 7 4 6 6 5 5 4 4 4 3 6
12 11 11 11 10 11 10 11 11 11 12 11 10 11 15 18 13 10 11 5 6 6 4 9 7 9 8 9 8 8 11 9 6 6 6 6 6 4 4 4 3 5 6
13 20 18 11 10 10 9 10 11 11 11 10 10 11 10 10 13 13 9 8 8 7 6 7 8 6 8 11 8 7 10 7 5 7 7 6 5 5 5 5 5 7 10
9 9 11 9 10 9 9 11 10 10 10 9 9 7 10 11 10 12 12 11 10 9 6 7 8 7 3 4 4 5 6 4 8 9 8 6 5 4 5 3 7 7 7
10 9 7 8 8 9 10 10 10 10 9 9 9 10 9 6 8 10 12 11 9 8 6 7 6 1 6 9 6 8 8 7 9 8 6 5 5 5 3 3 5 6 8
8 6 6 6 3 3 3 4 5 8 8 8 7 7 7 9 9 10 11 11 9 9 9 8 6 5 6 6 8 10 8 9 8 8 7 6 6 4 2 6 12 6 10
10 8 6 5 4 4 5 4 4 5 7 7 7 8 7 7 9 11 12 11 10 10 9 8 7 5 8 6 7 5 8 8 7 7 8 6 5 4 5 6 7 13 12
10 10 8 8 8 4 4 5 6 6 6 7 9 9 7 6 8 9 10 9 10 9 8 7 5 10 9 9 6 8 9 10 8 8 5 8 5 9 9 9 12 11 13
10 10 9 8 9 10 8 6 6 6 5 6 6 6 6 6 10 10 9 9 8 9 11 8 8 11 7 2 6 8 6 7 7 7 7 8 7 8 11 12 16 11 13
Wind_Direction
286 271 293 319 317 316 301 268 282 290 281 277 277 259 206 191 181 161 163 173 122 223 306 263 212 216 236 245 337 59 96 109 132 244 259 324 305 247 228 230 233 245 251
300 298 272 270 303 308 311 316 299 276 278 273 280 286 229 197 184 158 150 139 180 162 234 230 206 206 217 187 181 201 150 158 142 205 180 220 250 252 238 232 213 235 248
313 308 303 295 299 294 304 305 311 324 341 326 287 249 226 207 179 181 176 180 197 213 208 198 193 201 191 154 185 189 181 185 187 185 224 241 239 257 263 229 209 236 253
303 298 298 298 291 291 290 291 275 294 300 303 327 338 305 205 198 194 194 206 199 194 190 188 183 190 197 159 175 178 187 245 182 188 202 224 217 242 256 246 315 289 269
293 293 291 292 283 284 274 281 289 275 278 278 344 341 333 286 205 196 185 176 181 182 176 167 170 106 84 91 131 93 83 65 32 11 358 354 350 1 354 338 307 281 292
278 272 277 281 274 273 281 274 276 265 276 278 269 164 305 325 304 171 157 160 168 173 166 167 144 135 126 118 112 114 118 96 42 93 339 331 324 341 323 304 309 300 307
289 295 295 300 301 303 279 276 270 272 259 252 241 251 250 282 302 254 322 201 158 157 173 150 160 167 159 155 144 117 124 163 208 194 214 218 255 265 294 301 311 314 289
294 299 295 288 286 290 288 289 282 269 249 247 257 234 198 238 246 229 231 189 359 168 180 175 174 172 176 153 147 148 173 204 211 207 213 237 235 257 279 265 286 284 276
281 279 279 284 279 277 283 282 273 275 265 224 239 234 236 249 251 242 187 138 104 281 206 202 190 182 176 172 160 166 200 216 196 196 208 214 257 270 238 358 292 271 271
268 261 265 267 269 271 269 268 289 302 254 251 235 232 246 255 246 229 179 183 203 220 226 130 250 194 165 187 186 181 196 211 199 171 214 239 245 254 206 205 247 271 271
277 267 267 265 267 266 259 268 271 270 294 276 258 247 251 236 243 215 197 203 213 210 229 210 201 198 188 186 191 190 207 180 199 188 206 228 245 231 186 199 198 232 265
285 273 270 269 262 256 252 252 256 256 253 275 263 258 262 252 232 207 204 208 209 218 213 222 224 195 200 194 188 211 161 161 162 208 252 251 248 259 238 204 180 202 230
269 269 270 265 255 250 249 249 248 253 257 250 259 245 247 248 251 216 192 206 225 220 227 200 230 212 206 200 193 196 156 167 188 205 229 244 240 240 182 125 148 251 260
278 270 266 260 257 250 245 240 239 235 239 243 238 246 249 234 237 259 205 205 208 207 224 243 250 209 197 198 169 104 196 202 204 216 226 233 244 218 268 200 215 230 265
276 273 267 265 262 250 239 241 245 247 232 235 234 237 234 251 243 221 230 209 202 206 188 217 231 241 194 193 193 184 195 196 202 219 229 239 234 205 284 252 205 259 255
275 268 262 257 257 256 251 245 234 240 253 238 241 243 242 249 77 51 39 48 9 190 195 203 213 220 221 202 192 180 180 185 205 214 222 222 181 181 236 231 231 238 264
268 266 263 257 249 250 253 253 246 237 228 235 236 238 244 258 283 80 60 9 2 94 208 211 210 206 220 207 194 197 190 197 210 224 226 155 147 187 217 239 259 287 253
273 270 257 254 250 240 234 235 233 233 234 238 236 236 235 246 265 155 153 322 302 243 225 209 207 208 210 216 201 194 200 205 216 208 136 137 157 195 223 237 224 276 300
275 268 263 261 257 251 241 242 238 227 223 226 225 224 224 234 232 156 157 233 243 285 219 214 221 200 216 211 236 202 208 212 206 141 147 160 185 171 216 246 272 289 280
270 257 251 252 253 247 234 233 237 228 223 220 216 220 209 197 215 226 216 211 208 233 265 224 211 237 193 221 244 218 218 217 142 151 162 173 176 169 208 220 231 249 259
276 264 248 244 243 239 235 232 227 220 223 219 219 219 209 194 200 208 210 201 205 209 232 262 206 220 211 232 237 256 225 204 150 159 167 171 162 178 207 205 242 253 253
278 267 260 247 246 238 233 231 216 209 208 207 202 199 180 191 189 191 197 207 199 198 220 245 241 193 239 233 247 248 240 160 154 158 153 158 158 187 201 225 271 298 161
284 244 266 264 276 343 101 24 141 171 183 183 184 180 187 201 184 185 183 191 191 187 208 230 235 227 258 260 240 228 214 156 158 151 154 156 173 160 172 288 270 182 123
349 19 2 29 20 17 42 105 111 148 153 162 173 151 164 174 178 182 178 176 181 190 202 205 205 220 256 253 282 160 122 133 142 157 153 158 138 142 260 248 123 112 106
1 4 17 16 16 41 56 72 87 84 102 129 138 146 163 162 174 167 167 170 176 178 187 187 177 230 239 256 223 110 111 130 132 137 152 137 160 225 164 119 116 112 114
8 11 11 9 18 19 27 51 84 103 109 117 127 144 165 168 163 161 160 156 160 176 177 186 207 231 230 87 40 54 114 131 141 151 173 153 171 132 117 119 116 118 123